Chesapeake, VA

1:54 AM EST on January 23, 2018 (GMT -0500)
Chesapeake Regional

Weather History for KCPK - February, 2014

Change the Weather History Date:

Sunday, February 23, 2014

  Actual Average (KSFQ) Record (KSFQ)
Temperature  
Mean Temperature 49 °F -  
Max Temperature 68 °F 55 °F 77 °F (1975)
Min Temperature 30 °F 36 °F 14 °F (1963)
Degree Days  
Heating Degree Days 16    
Moisture  
Dew Point 36 °F    
Average Humidity 65    
Maximum Humidity 100    
Minimum Humidity 30    
Precipitation  
Precipitation 0.00 in - - ()
Sea Level Pressure  
Sea Level Pressure 30.00 in    
Wind  
Wind Speed 3 mph (SSW)    
Max Wind Speed 14 mph    
Max Gust Speed 16 mph    
Visibility 9 miles    
Events Fog    
Averages and records for this station are not official NWS values.
T = Trace of Precipitation, MM = Missing Value Source: NWS Daily Summary

Daily Weather History Graph

Daily Weather History Graph

Search for Another Location

Airport or City:

Trip Planner

Search our weather history database for the weather conditions in past years. The results will help you decide how hot, cold, wet, or windy it might be!

Date:

Astronomy

Feb. 23, 2014 Rise Set
Actual Time 6:43 AM EST 5:53 PM EST
Civil Twilight 6:17 AM EST 6:20 PM EST
Nautical Twilight 5:47 AM EST 6:50 PM EST
Astronomical Twilight 5:17 AM EST 7:20 PM EST
Moon 1:35 AM EST 11:59 AM EST
Length of Visible Light 12h 02m
Length of Day
11h 10m
Last Quarter, 39% of the Moon is Illuminated
Feb 23
Last Quarter
Mar 1
New
Mar 8
First Quarter
Mar 16
Full
Mar 23
Last Quarter

Hourly Weather History & Observations

Time (EST) Temp. Windchill Dew Point Humidity Pressure Visibility Wind Dir Wind Speed Gust Speed Precip Events Conditions
12:15 AM 37.4 °F - 37.4 °F 100% 30.13 in 2.0 mi Calm Calm - N/A   Clear
12:35 AM 37.4 °F - 37.4 °F 100% 30.12 in 1.0 mi Calm Calm - N/A   Mostly Cloudy
12:55 AM 37.4 °F - 37.4 °F 100% 30.12 in 10.0 mi Calm Calm - N/A   Scattered Clouds
1:15 AM 35.6 °F - 35.6 °F 100% 30.11 in 0.5 mi Calm Calm - N/A Fog Fog
1:35 AM 35.6 °F - 35.6 °F 100% 30.11 in 0.5 mi Calm Calm - N/A Fog Fog
1:55 AM 35.6 °F - 35.6 °F 100% 30.11 in 1.5 mi Calm Calm - N/A   Mist
2:15 AM 33.8 °F - 33.8 °F 100% 30.10 in 4.0 mi Calm Calm - N/A   Clear
2:35 AM 33.8 °F - 33.8 °F 100% 30.10 in 5.0 mi Calm Calm - N/A   Clear
2:55 AM 33.8 °F - 33.8 °F 100% 30.10 in 10.0 mi Calm Calm - N/A   Clear
3:15 AM 33.8 °F - 33.8 °F 100% 30.10 in 7.0 mi Calm Calm - N/A   Clear
3:35 AM 33.8 °F - 33.8 °F 100% 30.10 in 1.2 mi Calm Calm - N/A   Mostly Cloudy
3:55 AM 33.8 °F - 33.8 °F 100% 30.10 in 1.8 mi Calm Calm - N/A   Mostly Cloudy
4:15 AM 33.8 °F - 33.8 °F 100% 30.10 in 10.0 mi Calm Calm - N/A   Clear
4:35 AM 33.8 °F - 33.8 °F 100% 30.09 in 10.0 mi Calm Calm - N/A   Clear
4:55 AM 32.0 °F - 32.0 °F 100% 30.09 in 10.0 mi Calm Calm - N/A   Clear
5:15 AM 32.0 °F - 32.0 °F 100% 30.10 in 10.0 mi Calm Calm - N/A   Clear
5:35 AM 33.8 °F - 33.8 °F 100% 30.10 in 10.0 mi Calm Calm - N/A   Clear
5:55 AM 32.0 °F - 32.0 °F 100% 30.10 in 10.0 mi Calm Calm - N/A   Clear
6:15 AM 32.0 °F - 32.0 °F 100% 30.10 in 10.0 mi Calm Calm - N/A   Clear
6:35 AM 32.0 °F - 32.0 °F 100% 30.10 in 10.0 mi Calm Calm - N/A   Clear
6:55 AM 30.2 °F - 30.2 °F 100% 30.11 in 10.0 mi Calm Calm - N/A   Clear
7:15 AM 30.2 °F - 30.2 °F 100% 30.11 in 7.0 mi Calm Calm - N/A   Clear
7:35 AM 33.8 °F - 33.8 °F 100% 30.11 in 10.0 mi Calm Calm - N/A   Clear
7:55 AM 33.8 °F - 33.8 °F 100% 30.11 in 10.0 mi Calm Calm - N/A   Clear
8:15 AM 37.4 °F - 37.4 °F 100% 30.11 in 10.0 mi Calm Calm - N/A   Clear
8:35 AM 42.8 °F - 41.0 °F 93% 30.10 in 10.0 mi Calm Calm - N/A   Clear
8:55 AM 46.4 °F 45.2 °F 41.0 °F 81% 30.10 in 10.0 mi South 3.5 mph - N/A   Clear
9:15 AM 50.0 °F - 41.0 °F 71% 30.09 in 10.0 mi South 3.5 mph - N/A   Clear
9:35 AM 53.6 °F - 41.0 °F 62% 30.09 in 10.0 mi South 4.6 mph - N/A   Clear
9:55 AM 55.4 °F - 41.0 °F 58% 30.08 in 10.0 mi SSW 3.5 mph - N/A   Clear
10:15 AM 57.2 °F - 39.2 °F 51% 30.07 in 10.0 mi South 4.6 mph - N/A   Clear
10:35 AM 59.0 °F - 39.2 °F 48% 30.07 in 10.0 mi SSW 5.8 mph - N/A   Clear
10:55 AM 62.6 °F - 35.6 °F 37% 30.06 in 10.0 mi WSW 9.2 mph - N/A   Clear
11:15 AM 62.6 °F - 35.6 °F 37% 30.05 in 10.0 mi SSW 8.1 mph - N/A   Clear
11:35 AM 62.6 °F - 33.8 °F 34% 30.04 in 10.0 mi SSW 9.2 mph - N/A   Clear
11:55 AM 64.4 °F - 33.8 °F 32% 30.03 in 10.0 mi SW 8.1 mph - N/A   Clear
12:15 PM 64.4 °F - 33.8 °F 32% 30.01 in 10.0 mi SW 5.8 mph - N/A   Clear
12:35 PM 64.4 °F - 33.8 °F 32% 29.99 in 10.0 mi SSW 6.9 mph - N/A   Clear
12:55 PM 66.2 °F - 35.6 °F 32% 29.98 in 10.0 mi SSW 9.2 mph - N/A   Clear
1:15 PM 66.2 °F - 35.6 °F 32% 29.97 in 10.0 mi SW 8.1 mph - N/A   Clear
1:35 PM 66.2 °F - 35.6 °F 32% 29.96 in 10.0 mi SSW 13.8 mph - N/A   Clear
1:55 PM 66.2 °F - 35.6 °F 32% 29.95 in 10.0 mi SSW 9.2 mph - N/A   Clear
2:15 PM 68.0 °F - 35.6 °F 30% 29.94 in 10.0 mi SW 8.1 mph - N/A   Clear
2:35 PM 68.0 °F - 35.6 °F 30% 29.93 in 10.0 mi South 9.2 mph - N/A   Clear
2:55 PM 68.0 °F - 35.6 °F 30% 29.93 in 10.0 mi SSW 10.4 mph 16.1 mph N/A   Clear
3:15 PM 68.0 °F - 37.4 °F 33% 29.93 in 10.0 mi SW 9.2 mph - N/A   Clear
3:35 PM 68.0 °F - 37.4 °F 33% 29.91 in 10.0 mi SW 9.2 mph - N/A   Clear
3:55 PM 68.0 °F - 35.6 °F 30% 29.91 in 10.0 mi SSW 11.5 mph - N/A   Clear
4:15 PM 68.0 °F - 35.6 °F 30% 29.91 in 10.0 mi SW 11.5 mph - N/A   Clear
4:35 PM 66.2 °F - 35.6 °F 32% 29.91 in 10.0 mi SW 6.9 mph - N/A   Clear
4:55 PM 64.4 °F - 37.4 °F 37% 29.91 in 10.0 mi SW 8.1 mph - N/A   Clear
5:15 PM 64.4 °F - 35.6 °F 34% 29.91 in 10.0 mi SSW 6.9 mph - N/A   Clear
5:35 PM 60.8 °F - 37.4 °F 42% 29.91 in 10.0 mi SSW 8.1 mph - N/A   Clear
5:55 PM 60.8 °F - 37.4 °F 42% 29.91 in 10.0 mi South 4.6 mph - N/A   Clear
6:15 PM 59.0 °F - 37.4 °F 45% 29.91 in 10.0 mi South 4.6 mph - N/A   Clear
6:19 PM 59.0 °F - 37.4 °F 45% 29.90 in 10.0 mi South 4.6 mph - N/A   Clear
6:35 PM 57.2 °F - 37.4 °F 48% 29.90 in 10.0 mi South 4.6 mph - N/A   Clear
6:41 PM 57.2 °F - 37.4 °F 48% 29.90 in 10.0 mi South 3.5 mph - N/A   Clear
6:55 PM 57.2 °F - 37.4 °F 48% 29.90 in 10.0 mi South 4.6 mph - N/A   Clear
7:05 PM 55.4 °F - 39.2 °F 54% 29.90 in 10.0 mi South 4.6 mph - N/A   Clear
7:15 PM 55.4 °F - 37.4 °F 51% 29.89 in 10.0 mi South 4.6 mph - N/A   Clear
7:35 PM 53.6 °F - 39.2 °F 58% 29.89 in 10.0 mi South 5.8 mph - N/A   Clear
7:55 PM 55.4 °F - 39.2 °F 54% 29.89 in 10.0 mi South 5.8 mph - N/A   Clear
8:15 PM 53.6 °F - 39.2 °F 58% 29.89 in 10.0 mi South 5.8 mph - N/A   Clear
8:35 PM 53.6 °F - 39.2 °F 58% 29.89 in 10.0 mi South 5.8 mph - N/A   Clear
8:55 PM 53.6 °F - 39.2 °F 58% 29.89 in 10.0 mi South 5.8 mph - N/A   Clear
9:15 PM 53.6 °F - 39.2 °F 58% 29.90 in 10.0 mi South 4.6 mph - N/A   Clear
9:35 PM 53.6 °F - 39.2 °F 58% 29.90 in 10.0 mi South 4.6 mph - N/A   Clear
10:00 PM 53.6 °F - 39.2 °F 58% 29.90 in 10.0 mi Calm Calm - N/A   Clear
10:15 PM 51.8 °F - 39.2 °F 62% 29.89 in 10.0 mi South 3.5 mph - N/A   Scattered Clouds
10:35 PM 51.8 °F - 39.2 °F 62% 29.89 in 10.0 mi South 5.8 mph - N/A   Scattered Clouds
10:55 PM 50.0 °F - 39.2 °F 66% 29.89 in 10.0 mi South 6.9 mph - N/A   Scattered Clouds
11:15 PM 48.2 °F - 39.2 °F 71% 29.88 in 10.0 mi South 5.8 mph - N/A   Scattered Clouds
11:35 PM 48.2 °F - 39.2 °F 71% 29.88 in 10.0 mi South 8.1 mph - N/A   Scattered Clouds
11:55 PM 48.2 °F - 39.2 °F 71% 29.87 in 10.0 mi SSW 5.8 mph - N/A   Clear